This demonstration page uses our WeatherBlox Daily Observations layout. Learn more.

Left ArrowRight Arrow

39.29038, -76.61219

Hourly Observations for November 9, 2016

Temp ( °F °C ) Dew Point ( °F °C ) Humidity (%) Winds ( mph kmh ) Pressure ( in mb ) Visibility ( mi km ) Precip ( " mm )
12:54 am 00:54 undefined 57 13.9 38 3.3 49 49 undefined N/A 29.93 1014 N/A 0.00 0.00
1:54 am 01:54 undefined 56 13.3 39 3.9 53 53 undefined N/A 29.91 1013 N/A 0.00 0.00
2:54 am 02:54 undefined 57 13.9 39 3.9 51 51 undefined N/A 29.91 1013 N/A 0.00 0.00
3:54 am 03:54 undefined 58 14.4 40 4.4 51 51 undefined N/A 29.89 1012 N/A 0.00 0.00
4:54 am 04:54 undefined 59 15 43 6.1 56 56 undefined N/A 29.88 1012 N/A 0.00 0.00
5:54 am 05:54 undefined 58 14.4 48 8.9 70 70 undefined N/A 29.90 1013 N/A 0.00 0.00
6:54 am 06:54 undefined 56 13.3 50 10 81 81 undefined N/A 29.90 1013 N/A 0.01 0.25
7:54 am 07:54 undefined 55 12.8 51 10.6 87 87 undefined N/A 29.91 1013 N/A 0.02 0.51
8:54 am 08:54 undefined 55 12.8 52 11.1 90 90 undefined N/A 29.90 1013 N/A 0.03 0.76
9:54 am 09:54 undefined 56 13.3 52 11.1 87 87 undefined N/A 29.89 1012 N/A 0.02 0.51
10:54 am 10:54 undefined 57 13.9 52 11.1 83 83 undefined N/A 29.88 1012 N/A 0.00 0.00
11:54 am 11:54 undefined 59 15 51 10.6 75 75 undefined N/A 29.86 1011 N/A 0.00 0.00
12:54 pm 12:54 undefined 60 15.6 49 9.4 67 67 undefined N/A 29.85 1011 N/A 0.00 0.00
1:54 pm 13:54 undefined 59 15 50 10 72 72 undefined N/A 29.85 1011 N/A 0.00 0.00
2:54 pm 14:54 undefined 57 13.9 51 10.6 81 81 undefined N/A 29.86 1011 N/A 0.05 1.27
3:54 pm 15:54 undefined 58 14.4 50 10 75 75 undefined N/A 29.87 1012 N/A 0.00 0.00
4:54 pm 16:54 undefined 57 13.9 50 10 78 78 undefined N/A 29.89 1012 N/A 0.00 0.00
5:54 pm 17:54 undefined 56 13.3 49 9.4 77 77 undefined N/A 29.92 1013 N/A 0.00 0.00
6:54 pm 18:54 undefined 56 13.3 47 8.3 72 72 undefined N/A 29.94 1014 N/A 0.00 0.00
7:54 pm 19:54 undefined 56 13.3 45 7.2 67 67 undefined N/A 29.96 1015 N/A 0.00 0.00
8:54 pm 20:54 undefined 55 12.8 42 5.6 62 62 undefined N/A 29.99 1016 N/A 0.00 0.00
9:54 pm 21:54 undefined 53 11.7 41 5 64 64 undefined N/A 30.00 1016 N/A 0.00 0.00
10:54 pm 22:54 undefined 53 11.7 41 5 64 64 undefined N/A 30.01 1016 N/A 0.00 0.00
11:54 pm 23:54 undefined 51 10.6 37 2.8 59 59 undefined N/A 30.03 1017 N/A 0.00 0.00

Powered by AerisWeather